CZ-3B DEB, 40849

Orbit data source: Space-Track

CZ-3B DEB, 40849 is space debris in HEO originally from a launch on Mon, 19 Dec 2011 UTC launched from the Xichang Space Center, China (XSC). Debris objects in space refer to the collection of defunct objects orbiting the Earth. Examples of debris include non-operational satellites, rocket bodies, and fragments generated from explosions, collisions, or faulty payload assembly.

Loading next visibility...
Identifier
40849, 2011-077AE
Orbit
HEO
Country
Flag of CNCN / PRC
Related business
Manufacturer
CALT
Mission
Spacecraft
Bus & Motor
Unknown
Mass
Unknown
Launch date (UTC)
2011-12-19 (14 years ago)
Launch vehicle
Unknown
Launch site
Xichang Space Center, China (XSC)
Object type
Payload
Rocket body
Debris
Shape & HBR
Unknown shape, 0.3 m
Radar Cross Section
Medium (>0.1 m² and <1 m²)

Expand to show TLE details & history
Last TLE update: 1 day ago

TLE from 1 day ago
0 CZ-3B DEB
1 40849U 11077AE  26034.65480322  .00000006  00000-0  81349-2 0  9999
2 40849  26.3698  20.4475 7392622   5.1735 359.2818  1.90643762 89398
Epoch: 2026-02-03T15:42Z
TLE epoch observation values (Epoch: 2026-02-03T15:42:54.998Z)
Latitude
0.00087°
Longitude
10.88445°
Altitude
825.444 km
Speed
9.806 km/s
True Right ascension
01h 21m 47s
True Declination
0° 00' 03"
Sunlit
Object was in daylight at epoch
Visualization orbit readout
Latitude
Unknown
Longitude
Unknown
Altitude
Unknown
Speed
Unknown
Apparent Right ascension
Unknown
Apparent Declination
Unknown
Sunlit
N/A
Visualization observer readout
Local Sidereal Time
04:38:47
Azimuth
Unknown
Elevation
Unknown
Doppler factor
Unknown
Orbital elements
Apogee altitude
41,412.614 km
Perigee altitude
786.312 km
Semi-major axis
27,477.6 km
Eccentricity
0.73926
Inclination
26.3698°
RAAN
20.4475°
Arg. of periapsis
5.1735°
True anomaly
352.90134°
Mean anomaly
359.2818°
Eccentric anomaly
357.24851°
Mean motion
0.47651 °/min
Orbital period
755.49 mins
BSTAR
0.0081349
Loading maneuver chart data...
Computing Atmospheric mass density...
Loading historical data...
Loading historical data...
Loading historical data...
Loading historical data...
Loading historical data...
Loading historical data...
Loading historical data...

Documentation

Showing up to 5 results
|